Regional Weather Roundup
Issued by NWS Newport/Morehead, NC

Current Version | Previous Version | Graphics & Text | Print | Product List | Glossary Off
Versions: 1 2 3 4 5 6 7 8 9 10 11 12 13 14 15 16 17 18 19 20 21 22 23 24 25 26 27 28 29 30 31 32 33 34 35 36 37 38 39 40 41 42 43 44 45 46 47 48 49 50

000
ASUS42 KMHX 232025
RWRMHX
WEATHER ROUNDUP FOR EASTERN NORTH CAROLINA
NATIONAL WEATHER SERVICE NEWPORT/MOREHEAD CITY NC
400 PM EDT MON MAY 23 2016

NOTE: "FAIR" INDICATES FEW OR NO CLOUDS BELOW 12,000 FEET
WITH NO SIGNIFICANT WEATHER AND/OR OBSTRUCTIONS TO VISIBILITY

NCZ015>017-031-032-045>047-102-103-232100-
NORTH COAST

CITY           SKY/WX    TMP DP  RH WIND       PRES   REMARKS
EDENTON        CLOUDY    66  63  91 NE8       29.92S
ELIZABETH CITY MOSUNNY   66  50  56 N16       29.90F
KITTY HAWK     CLOUDY    62  53  73 N12       29.88S
MANTEO         CLOUDY    61  56  81 N14       29.90R

$$

NCZ045>047-081-094-103-104-232100-
CENTRAL COAST

CITY           SKY/WX    TMP DP  RH WIND       PRES   REMARKS
FRISCO         CLOUDY    64  56  75 NW9G20    29.88S

$$

NCZ095-097-098-100-101-232100-
SOUTHERN COAST

CITY           SKY/WX    TMP DP  RH WIND       PRES   REMARKS
BEAUFORT       SUNNY     68  57  68 NW14      29.90S
CEDAR ISLAND   NOT AVBL
JACKSONVILLE   CLOUDY    63  57  82 NW8       29.92R
PINEY ISLAND   LGT RAIN N/A N/A N/A NW14      29.90R
WILMINGTON     CLOUDY    69  54  58 NW13      29.93F


$$

NCZ011>013-027>030-043-044-078>080-089-090>093-098-232100-
COASTAL PLAIN

CITY           SKY/WX    TMP DP  RH WIND       PRES   REMARKS
AHOSKIE        CLOUDY    60  56  86 CALM      29.95S
CLINTON        MOSUNNY   68  56  66 NW13      29.96S
ELIZABETHTOWN  CLOUDY    68  52  56 NW8       29.95S
GOLDSBORO      LGT RAIN  63  61  94 N12       29.93R
GREENVILLE     CLOUDY    66  55  68 N10       29.95S
HAVELOCK       LGT RAIN  65  57  75 NW13      29.92F
KENANSVILLE    CLOUDY    63  58  84 CALM      29.95S
KINSTON        PTSUNNY   68  55  64 N12       29.94S
NEW BERN       LGT RAIN  65  60  84 N7        29.93S
RICHLANDS      LGT RAIN  62  60  93 N5        29.94S
ROCKY MOUNT    CLOUDY    62  55  77 CALM      29.95S
WASHINGTON     LGT RAIN  64  59  81 N8        29.92F
WHITEVILLE     CLOUDY    68  54  60 W3        29.95S

$$

AMZ130-135-150-152-154-156-158-170-250-252-270-ANZ085-086-088-633-658-670-232100-
MARINE OBSERVATIONS

STATION/POSITION TIME  TEMP    WIND        PRES    WAVE   SWELL
                       AIR SEA DIR/SP/G            HT/PER HT/PER
                 (UTC) (F)     (DEG/KT/KT) (MB)    (FT/S) (FT/S)
CHESAPEAKE LIGHT 2000   58      20/ 16/ 18 1012.8
64 E VA BEACH    1950   56 58  360/ 17/ 21 1010.7    7/ 9   5/ 9
DUCK             2000   58 62   10/ 17/ 20 1011.2
2 E DUCK         2011      62                N/A     5/ 8   2/11
OREGON INLET     2000   60 64  340/ 13/ 19 1011.9
13E OREGON INLT  2000      62                N/A     5/ 8   3/ 8
HATTERAS CG      2000   62 67  310/ 15/ 18 1011.2
DIAMOND BUOY     1950   63 66  290/ 14/ 16 1011.6    3/ 8   2/ 8
CAPE LOOKOUT     2000   65     290/ 14/ 17 1012.0
BEAUFORT LAB     2000   65 68  330/  9/ 14 1011.7
30 SE NEW RVR IN 1925      73                N/A     3/ 9
27 SE WRIGHTSVLE 2008   68 73  300/ 14/ 17 1013.6
5 SE WRIGHTSVLE  2008   68 72  330/ 12/ 16 1014.1
225 S CAPE HAT   1950   73 77  300/  6/ 12 1012.9    5/ 7   5/ 7
41 SE CHARLESTON 1950   71 75  330/  6/  8 1013.9    2/ 9   2/ 9

$$



USA.gov is the U.S. government's official web portal to all federal, state and local government web resources and services.